GPS BIIF-6

Last updated on Sat Jul 05 2025 00:02:32 GMT+0000 (Coordinated Universal Time)

1 39741U 14026A 25184.95550687 -.00000096 00000+0 00000+0 0 9996 2 39741 56.6421 345.0629 0034672 319.5780 40.1690 2.00573044 81558
UTC large
Height (km)
Speed (km/s)
/
Latitude / Longitude
Inclination (degrees)
Orbital Period (minutes)
Azimuth
Elevation
Range (km)
Doppler Factor

Next 0 passes for location: London (51.5072 / 0.1276)

Sorry there are no passes over London.